Previsão horária em Almora

Hoje, 17 Janeiro, Domingo

Tempo Temperatura Precipitação Vento Pressão Humidade
00:00 +5°C° 0 mm 0 m/s 625 mmHg 59%
01:00 +4°C° 0 mm 0 m/s 624 mmHg 59%
02:00 +4°C° 0 mm 0 m/s 624 mmHg 60%
03:00 +4°C° 0 mm 0 m/s 624 mmHg 61%
04:00 +3°C° 0 mm 0 m/s 624 mmHg 62%
05:00 +3°C° 0 mm 0 m/s 625 mmHg 64%
06:00 +5°C° 0 mm 0 m/s 626 mmHg 59%
07:00 +6°C° 0 mm 0 m/s 627 mmHg 54%
08:00 +8°C° 0 mm 0 m/s 628 mmHg 49%
09:00 +12°C° 0 mm 1 m/s 629 mmHg 42%
10:00 +15°C° 0 mm 1 m/s 630 mmHg 36%
11:00 +19°C° 0 mm 1 m/s 632 mmHg 29%
12:00 +19°C° 0 mm 1 m/s 631 mmHg 29%
13:00 +20°C° 0 mm 1 m/s 630 mmHg 28%
14:00 +19°C° 0 mm 2 m/s 630 mmHg 28%
15:00 +16°C° 0 mm 2 m/s 629 mmHg 39%
16:00 +13°C° 0 mm 1 m/s 628 mmHg 50%
17:00 +10°C° 0 mm 1 m/s 627 mmHg 61%
18:00 +9°C° 0 mm 1 m/s 627 mmHg 69%
19:00 +7°C° 0 mm 1 m/s 627 mmHg 76%
20:00 +5°C° 0 mm 0 m/s 627 mmHg 84%
21:00 +4°C° 0 mm 0 m/s 627 mmHg 84%
22:00 +4°C° 0 mm 0 m/s 627 mmHg 84%
23:00 +4°C° 0 mm 0 m/s 627 mmHg 83%

Amanhã, 18 Janeiro, Segunda-feira

Tempo Temperatura Precipitação Vento Pressão Humidade
00:00 +4°C° 0 mm 0 m/s 627 mmHg 83%
01:00 +4°C° 0 mm 0 m/s 627 mmHg 83%
02:00 +3°C° 0 mm 0 m/s 626 mmHg 83%
03:00 +3°C° 0 mm 0 m/s 626 mmHg 83%
04:00 +3°C° 0 mm 0 m/s 626 mmHg 84%
05:00 +3°C° 0 mm 0 m/s 626 mmHg 84%
06:00 +4°C° 0 mm 0 m/s 627 mmHg 77%
07:00 +6°C° 0 mm 0 m/s 628 mmHg 71%
08:00 +7°C° 0 mm 0 m/s 628 mmHg 64%
09:00 +12°C° 0 mm 1 m/s 630 mmHg 54%
10:00 +15°C° 0 mm 1 m/s 631 mmHg 44%
11:00 +19°C° 0 mm 1 m/s 632 mmHg 33%
12:00 +19°C° 0 mm 1 m/s 631 mmHg 33%
13:00 +20°C° 0 mm 1 m/s 630 mmHg 32%
14:00 +19°C° 0 mm 2 m/s 630 mmHg 31%
15:00 +16°C° 0 mm 2 m/s 629 mmHg 40%
16:00 +14°C° 0 mm 2 m/s 628 mmHg 50%
17:00 +11°C° 0 mm 1 m/s 627 mmHg 60%
18:00 +10°C° 0 mm 1 m/s 627 mmHg 66%
19:00 +8°C° 0 mm 1 m/s 627 mmHg 73%
20:00 +7°C° 0 mm 1 m/s 627 mmHg 80%
21:00 +6°C° 0 mm 1 m/s 626 mmHg 80%
22:00 +6°C° 0 mm 1 m/s 626 mmHg 81%
23:00 +6°C° 0 mm 1 m/s 626 mmHg 81%

Depois de amanhã, 19 Janeiro, Terça-feira

Tempo Temperatura Precipitação Vento Pressão Humidade
00:00 +5°C° 0 mm 1 m/s 626 mmHg 81%
01:00 +5°C° 0 mm 1 m/s 625 mmHg 80%
02:00 +4°C° 0 mm 0 m/s 624 mmHg 80%
03:00 +5°C° 0 mm 1 m/s 624 mmHg 79%
04:00 +5°C° 0 mm 1 m/s 624 mmHg 78%
05:00 +4°C° 0 mm 1 m/s 624 mmHg 77%
06:00 +5°C° 0 mm 0 m/s 625 mmHg 70%
07:00 +7°C° 0 mm 0 m/s 626 mmHg 63%
08:00 +8°C° 0 mm 0 m/s 627 mmHg 56%
09:00 +11°C° 0 mm 0 m/s 628 mmHg 47%
10:00 +15°C° 0 mm 0 m/s 629 mmHg 38%
11:00 +18°C° 0 mm 0 m/s 630 mmHg 29%
12:00 +20°C° 0 mm 1 m/s 630 mmHg 26%
13:00 +19°C° 0 mm 2 m/s 629 mmHg 24%
14:00 +19°C° 0 mm 2 m/s 629 mmHg 22%
15:00 +17°C° 0 mm 2 m/s 628 mmHg 29%
16:00 +14°C° 0 mm 2 m/s 627 mmHg 37%
17:00 +11°C° 0 mm 1 m/s 626 mmHg 44%
18:00 +10°C° 0 mm 1 m/s 625 mmHg 48%
19:00 +8°C° 0 mm 1 m/s 625 mmHg 51%
20:00 +6°C° 0 mm 1 m/s 625 mmHg 55%
21:00 +6°C° 0 mm 1 m/s 625 mmHg 55%
22:00 +6°C° 0 mm 1 m/s 625 mmHg 55%
23:00 +5°C° 0 mm 1 m/s 625 mmHg 56%

20 Janeiro, Quarta-feira

Tempo Temperatura Precipitação Vento Pressão Humidade
00:00 +5°C° 0 mm 1 m/s 625 mmHg 55%
01:00 +5°C° 0 mm 1 m/s 625 mmHg 55%
02:00 +5°C° 0 mm 1 m/s 624 mmHg 55%
03:00 +4°C° 0 mm 1 m/s 624 mmHg 55%
04:00 +4°C° 0 mm 1 m/s 624 mmHg 55%
05:00 +4°C° 0 mm 1 m/s 624 mmHg 55%
06:00 +6°C° 0 mm 1 m/s 624 mmHg 50%
07:00 +7°C° 0 mm 1 m/s 625 mmHg 46%
08:00 +9°C° 0 mm 1 m/s 626 mmHg 41%
09:00 +12°C° 0 mm 1 m/s 627 mmHg 34%
10:00 +16°C° 0 mm 1 m/s 628 mmHg 28%
11:00 +20°C° 0 mm 1 m/s 629 mmHg 21%
12:00 +20°C° 0 mm 1 m/s 629 mmHg 20%
13:00 +19°C° 0 mm 2 m/s 628 mmHg 19%
14:00 +19°C° 0 mm 2 m/s 628 mmHg 18%
15:00 +16°C° 0 mm 2 m/s 627 mmHg 25%
16:00 +14°C° 0 mm 2 m/s 626 mmHg 32%
17:00 +11°C° 0 mm 1 m/s 625 mmHg 39%
18:00 +9°C° 0 mm 1 m/s 625 mmHg 43%
19:00 +8°C° 0 mm 1 m/s 625 mmHg 48%
20:00 +6°C° 0 mm 1 m/s 625 mmHg 52%
21:00 +6°C° 0 mm 1 m/s 625 mmHg 52%
22:00 +5°C° 0 mm 1 m/s 625 mmHg 52%
23:00 +5°C° 0 mm 1 m/s 625 mmHg 52%

21 Janeiro, Quinta-feira

Tempo Temperatura Precipitação Vento Pressão Humidade
00:00 +5°C° 0 mm 1 m/s 624 mmHg 52%
01:00 +4°C° 0 mm 1 m/s 624 mmHg 51%
02:00 +4°C° 0 mm 1 m/s 624 mmHg 51%
03:00 +4°C° 0 mm 1 m/s 623 mmHg 50%
04:00 +4°C° 0 mm 1 m/s 623 mmHg 49%
05:00 +4°C° 0 mm 1 m/s 623 mmHg 48%
06:00 +5°C° 0 mm 1 m/s 624 mmHg 44%
07:00 +7°C° 0 mm 1 m/s 625 mmHg 39%
08:00 +8°C° 0 mm 1 m/s 626 mmHg 35%
09:00 +12°C° 0 mm 1 m/s 627 mmHg 29%
10:00 +15°C° 0 mm 0 m/s 628 mmHg 23%
11:00 +19°C° 0 mm 0 m/s 630 mmHg 18%
12:00 +21°C° 0 mm 1 m/s 629 mmHg 17%
13:00 +21°C° 0 mm 1 m/s 629 mmHg 17%
14:00 +21°C° 0 mm 1 m/s 628 mmHg 17%
15:00 +18°C° 0 mm 1 m/s 628 mmHg 26%
16:00 +14°C° 0 mm 1 m/s 627 mmHg 35%
17:00 +10°C° 0 mm 2 m/s 626 mmHg 44%
18:00 +9°C° 0 mm 1 m/s 626 mmHg 51%
19:00 +7°C° 0 mm 1 m/s 625 mmHg 58%
20:00 +5°C° 0 mm 0 m/s 625 mmHg 64%
21:00 +4°C° 0 mm 0 m/s 625 mmHg 65%
22:00 +4°C° 0 mm 0 m/s 625 mmHg 66%
23:00 +3°C° 0 mm 0 m/s 625 mmHg 66%

22 Janeiro, Sexta-feira

Tempo Temperatura Precipitação Vento Pressão Humidade
00:00 +3°C° 0 mm 0 m/s 625 mmHg 66%
01:00 +3°C° 0 mm 0 m/s 624 mmHg 66%
02:00 +3°C° 0 mm 0 m/s 624 mmHg 65%
03:00 +3°C° 0 mm 0 m/s 624 mmHg 64%
04:00 +2°C° 0 mm 0 m/s 624 mmHg 62%
05:00 +3°C° 0 mm 1 m/s 624 mmHg 60%
06:00 +4°C° 0 mm 0 m/s 624 mmHg 54%
07:00 +6°C° 0 mm 0 m/s 625 mmHg 48%
08:00 +7°C° 0 mm 0 m/s 626 mmHg 41%
09:00 +11°C° 0 mm 0 m/s 627 mmHg 35%
10:00 +16°C° 0 mm 1 m/s 629 mmHg 29%
11:00 +20°C° 0 mm 1 m/s 630 mmHg 22%
12:00 +21°C° 0 mm 1 m/s 629 mmHg 22%
13:00 +20°C° 0 mm 2 m/s 629 mmHg 22%
14:00 +20°C° 0 mm 2 m/s 628 mmHg 22%
15:00 +17°C° 0 mm 2 m/s 627 mmHg 31%
16:00 +14°C° 0 mm 2 m/s 626 mmHg 41%
17:00 +11°C° 0 mm 1 m/s 625 mmHg 50%
18:00 +9°C° 0 mm 1 m/s 625 mmHg 57%
19:00 +8°C° 0 mm 1 m/s 625 mmHg 64%
20:00 +5°C° 0 mm 0 m/s 625 mmHg 71%
21:00 +5°C° 0 mm 0 m/s 625 mmHg 70%
22:00 +5°C° 0 mm 0 m/s 625 mmHg 70%
23:00 +4°C° 0 mm 0 m/s 625 mmHg 69%
Mostrar mais

Necessitamos do seu Consentimento

A Meteoprog e os seus Fornecedores de Serviços podem armazenar e aceder a dados pessoais como cookies, identificadores do dispositivo ou outras tecnologias semelhantes existentes no seu dispositivo e processar estes dados para personalizar conteúdos e anúncios, assim como funcionalidades nas redes sociais e análise de tráfego.

  • Armazenar e/ou aceder a informações no seu dispositivo

    Os cookies, identificadores do dispositivo ou outras informações podem ser armazenados ou acedidos no seu dispositivo, para os fins acima indicados.

  • Anúncios e conteúdos personalizados, medição de anúncios e conteúdos, dados sobre o público-alvo e desenvolvimento de produtos

    Os anúncios e os conteúdos podem ser personalizados com base num perfil. Podem ser adicionados dados adicionais para uma maior personalização dos anúncios e dos conteúdos. A eficácia dos anúncios e dos conteúdos pode ser medida. Podem ser obtidas informações sobre o público que visualizou os anúncios e os conteúdos. Estes dados podem ser usados para desenvolver ou melhorar sistemas, softwares ou a experiência do utilizador.

Ao clicar em "Eu concordo”, permitirá o uso de cookies, identificadores do dispositivo e web beacons mencionados ou outras tecnologias semelhantes. As configurações do navegador do seu dispositivo podem ser alteradas.

Para certos fins, podem ser invocados interesses legítimos ao invés de consentimento. Pode ler mais informação sobre este assunto na nossa Política de Privacidade e Cookies.